Simultaneous Nadir Overpasses (SNOs) Predictions

Prediction of SNOs between METOP-A and NOAA-19 Satellite Orbit:

Table of predicted SNOs for the next 14.0 days since TLE Epoch: 12/1/2018
Index Date (METOP-A) Time (METOP-A) Lat,Lon (METOP-A) SZA (METOP-A ) Date (NOAA-19) Time (NOAA-19) Lat,Lon (NOAA-19) SZA (NOAA-19 ) Distance(km) Time Diff (sec)
1 12/01/2018 22:03:38 79.14,-140.49 101.25 12/01/2018 22:02:38 79.11,-140.43 101.21 3.70 60
2 12/01/2018 22:54:20 -79.11, 26.66 78.79 12/01/2018 22:53:35 -79.14, 26.59 78.77 3.10 45
3 12/01/2018 23:45:00 79.12,-165.98 101.23 12/01/2018 23:44:39 79.11,-165.93 101.22 1.51 21
4 12/02/2018 00:35:41 -79.13, 1.42 78.76 12/02/2018 00:35:35 -79.11, 1.35 78.78 2.84 6
5 12/02/2018 01:26:22 79.10, 168.54 101.21 12/02/2018 01:26:40 79.11, 168.57 101.23 1.49 18
6 12/02/2018 02:17:03 -79.11, -24.06 78.78 12/02/2018 02:17:36 -79.11, -24.15 78.77 1.81 33
7 12/02/2018 03:07:44 79.08, 143.05 101.19 12/02/2018 03:08:41 79.11, 143.07 101.24 3.69 57
8 12/02/2018 03:58:25 -79.09, -49.55 78.79 12/02/2018 03:59:37 -79.11, -49.65 78.76 3.19 72
9 12/12/2018 18:12:20 79.47, -80.38 102.83 12/12/2018 18:11:17 79.44, -85.13 102.62 96.68 63
10 12/12/2018 19:03:11 -79.14, 84.53 77.59 12/12/2018 19:02:03 -79.17, 84.60 77.57 3.51 68
11 12/12/2018 19:53:50 79.17,-107.95 102.45 12/12/2018 19:53:08 79.14,-107.90 102.41 3.59 42
12 12/12/2018 20:44:32 -79.16, 59.29 77.57 12/12/2018 20:44:03 -79.14, 59.36 77.59 2.37 29
13 12/12/2018 21:35:12 79.15,-133.44 102.42 12/12/2018 21:35:09 79.14,-133.40 102.42 1.30 3
14 12/12/2018 22:25:54 -79.14, 33.80 77.59 12/12/2018 22:26:04 -79.14, 33.85 77.59 1.23 10
15 12/12/2018 23:16:34 79.13,-158.93 102.40 12/12/2018 23:17:10 79.14,-158.91 102.42 1.51 36
16 12/13/2018 00:07:16 -79.11, 8.31 77.62 12/13/2018 00:08:05 -79.14, 8.35 77.58 3.03 49
17 12/13/2018 00:57:56 79.10, 175.58 102.38 12/13/2018 00:59:11 79.14, 175.59 102.43 3.84 75




NCC Satellite Simultaneous Nadir Overpasses (SNOs) Prediction Service
